Regional Weather Roundup
Issued by NWS

Home | Current Version | Previous Version | Graphics & Text | Print | Product List | Glossary On
Versions: 1 2 3 4 5 6 7 8 9 10 11 12 13 14 15 16 17 18 19 20 21 22 23 24 25 26 27 28 29 30 31 32 33 34 35 36 37 38 39 40 41 42 43 44 45 46 47 48 49 50
000
ASUS43 KFSD 271210
RWRSD

WEATHER ROUNDUP FOR SOUTH DAKOTA
NATIONAL WEATHER SERVICE SIOUX FALLS SD
700 AM CDT THU APR 27 2017

NOTE: "FAIR" INDICATES FEW OR NO CLOUDS BELOW 12,000 FEET WITH NO
SIGNIFICANT WEATHER AND/OR OBSTRUCTIONS TO VISIBILITY.


SDZ001>005-009-010-012>017-271300-
NORTHWEST AND NORTH CENTRAL SOUTH DAKOTA

CITY           SKY/WX    TMP DP  RH WIND       PRES   REMARKS
BUFFALO          N/A     25  23  92 E8        29.60S WCI  16
FAITH            N/A     26  25  96 NE10      29.69S WCI  16
MOBRIDGE       CLOUDY    33  25  72 N6        29.70S WCI  28
$$

SDZ012>016-024>037-041>051-057-063-072>074-271300-
SOUTHWEST AND SOUTH CENTRAL SOUTH DAKOTA

CITY           SKY/WX    TMP DP  RH WIND       PRES   REMARKS
RAPID CTY ARPT CLOUDY    24  22  91 CALM      29.64S
PIERRE         CLOUDY    30  26  85 N8        29.70F WCI  22
CUSTER         CLOUDY    28  25  88 NE6       29.58F WCI  22
ELLSWORTH AFB  PTCLDY    28  28 100 CALM      29.63F
PHILIP         CLEAR     22  20  92 CALM      29.69F
PINE RIDGE     PTCLDY    27  25  92 CALM      29.63S
SPEARFISH      FAIR      25  25 100 W6        29.60F WCI  18
WINNER         FOG       24  21  88 W5        29.69S VSB 1/2 WCI  18
$$

SDZ004>011-016>023-039-040-271300-
NORTHEAST SOUTH DAKOTA

CITY           SKY/WX    TMP DP  RH WIND       PRES   REMARKS
ABERDEEN       CLOUDY    28  23  81 N13       29.71R WCI  17
WATERTOWN      CLOUDY    27  22  81 N17       29.63R WCI  14
BROOKINGS      CLOUDY    28  24  85 NW17G26   29.62S WCI  16
SISSETON         N/A     27  25  92 N15       29.66R WCI  15
$$

SDZ017-020-022-023-036>040-048>070-271300-
SOUTHEAST SOUTH DAKOTA

CITY           SKY/WX    TMP DP  RH WIND       PRES   REMARKS
SIOUX FALLS    CLOUDY    31  26  82 NW12      29.65R WCI  22
HURON          CLOUDY    30  25  81 N13       29.70R WCI  20
CHAMBERLAIN    CLOUDY    32  31  93 W8        29.69S WCI  25
MITCHELL       CLOUDY    32  26  78 NW14      29.69S WCI  22
YANKTON        MOCLDY    30  25  80 NW10      29.68R WCI  21
$$

ABBREVIATIONS USED IN REMARKS
   TC - TEMPERATURE IN CELSIUS
  WCI - WIND CHILL INDEX
   HX - HEAT INDEX
  VSB - VISIBILITY





USA.gov is the U.S. government's official web portal to all federal, state and local government web resources and services.